EW5035 Weather Reports


Display with metric or nautical units.
time (UTC)temp
F
wind
direction
speed
MPH
gust
MPH
rain 1hr
in
rain 24hr
in
rain mn
in
humidity
%
barometer
mb
20260507084033 55 172 10.0 14.0 0.00 0.00 0.00 71 1014.7
20260507083531 55 172 9.0 14.0 0.00 0.00 0.00 71 1014.8
20260507083041 56 172 8.0 13.0 0.00 0.00 0.00 70 1014.7
20260507082534 56 172 9.0 14.0 0.00 0.00 0.00 70 1014.7
20260507082034 56 172 9.0 16.0 0.00 0.00 0.00 70 1014.8
20260507081540 56 172 9.0 16.0 0.00 0.00 0.00 69 1014.7
20260507081037 56 172 11.0 15.0 0.00 0.00 0.00 70 1014.9
20260507080535 56 172 10.0 16.0 0.00 0.00 0.00 70 1014.6
20260507080045 56 172 11.0 18.0 0.00 0.00 0.00 69 1014.5
20260507075534 56 172 14.0 18.0 0.00 0.00 0.00 70 1014.4
20260507075034 56 172 13.0 16.0 0.00 0.00 0.00 69 1014.5
20260507074554 57 172 10.0 16.0 0.00 0.00 0.00 67 1014.6
20260507074034 58 172 10.0 15.0 0.00 0.00 0.00 66 1014.7
20260507073534 58 172 10.0 17.0 0.00 0.00 0.00 66 1014.6
20260507073046 58 172 12.0 20.0 0.00 0.00 0.00 65 1014.6
20260507072531 59 172 14.0 21.0 0.00 0.00 0.00 64 1014.5
20260507072034 58 172 13.0 21.0 0.00 0.00 0.00 64 1014.4
20260507071548 58 188 11.0 15.0 0.00 0.00 0.00 65 1014.2
20260507071043 58 203 10.0 17.0 0.00 0.00 0.00 62 1014.2
20260507070535 61 208 8.0 17.0 0.00 0.00 0.00 53 1014.1
20260507070055 62 208 13.0 17.0 0.00 0.00 0.00 48 1014.1
20260507065536 62 200 9.0 20.0 0.00 0.00 0.00 51 1014.2
20260507065034 62 200 13.0 20.0 0.00 0.00 0.00 51 1014.2
20260507064546 61 208 9.0 16.0 0.00 0.00 0.00 53 1014.2
20260507064034 62 209 10.0 20.0 0.00 0.00 0.00 50 1014.2
20260507063534 63 209 12.0 20.0 0.00 0.00 0.00 46 1014.1
20260507063050 63 209 14.0 20.0 0.00 0.00 0.00 45 1013.9
20260507062535 63 205 13.0 23.0 0.00 0.00 0.00 45 1013.8
20260507062035 64 204 16.0 23.0 0.00 0.00 0.00 44 1013.8
20260507061549 63 198 13.0 25.0 0.00 0.00 0.00 46 1013.8
20260507061031 63 192 15.0 25.0 0.00 0.00 0.00 46 1013.8
20260507060534 62 183 9.0 24.0 0.00 0.00 0.00 47 1013.8
20260507060050 63 183 13.0 24.0 0.00 0.00 0.00 46 1013.8
20260507055534 64 187 13.0 23.0 0.00 0.00 0.00 44 1013.8
20260507055034 63 202 12.0 19.0 0.00 0.00 0.00 45 1013.8
20260507054539 63 202 11.0 19.0 0.00 0.00 0.00 45 1013.8
20260507054034 62 202 12.0 17.0 0.00 0.00 0.00 47 1013.6
20260507053535 62 219 10.0 15.0 0.00 0.00 0.00 47 1013.7
20260507053046 63 222 9.0 14.0 0.00 0.00 0.00 46 1013.7
20260507052534 64 223 10.0 14.0 0.00 0.00 0.00 43 1013.7
20260507052034 65 223 8.0 11.0 0.00 0.00 0.00 42 1013.6
20260507051548 66 223 6.0 9.0 0.00 0.00 0.00 41 1013.5
20260507051031 66 223 3.0 11.0 0.00 0.00 0.00 40 1013.5
20260507050534 67 223 5.0 16.0 0.00 0.00 0.00 39 1013.3
20260507050044 67 223 8.0 19.0 0.00 0.00 0.00 39 1013.3
20260507045531 67 224 12.0 19.0 0.00 0.00 0.00 38 1013.3
20260507045034 66 223 11.0 19.0 0.00 0.00 0.00 39 1013.2
20260507044539 66 221 13.0 19.0 0.00 0.00 0.00 40 1013.1
20260507044035 66 221 10.0 18.0 0.00 0.00 0.00 40 1013.0
20260507043535 66 221 12.0 20.0 0.00 0.00 0.00 40 1013.1
20260507043047 66 221 13.0 20.0 0.00 0.00 0.00 40 1012.9
20260507042537 66 221 11.0 17.0 0.00 0.00 0.00 39 1013.0
20260507042034 67 223 11.0 16.0 0.00 0.00 0.00 37 1012.9
20260507041551 68 225 10.0 19.0 0.00 0.00 0.00 36 1013.0
20260507041034 69 224 11.0 19.0 0.00 0.00 0.00 35 1012.9
20260507040535 69 221 12.0 23.0 0.00 0.00 0.00 34 1012.8
20260507040053 70 220 15.0 23.0 0.00 0.00 0.00 33 1012.7
20260507035534 70 218 15.0 22.0 0.00 0.00 0.00 33 1012.7
20260507035034 69 211 12.0 16.0 0.00 0.00 0.00 34 1012.7
20260507034541 69 209 10.0 16.0 0.00 0.00 0.00 33 1012.6
20260507034035 70 209 10.0 16.0 0.00 0.00 0.00 32 1012.7
20260507033535 70 209 7.0 15.0 0.00 0.00 0.00 31 1012.6
20260507033040 70 207 8.0 15.0 0.00 0.00 0.00 31 1012.5
20260507032535 70 206 8.0 14.0 0.00 0.00 0.00 31 1012.5
20260507032033 70 205 8.0 13.0 0.00 0.00 0.00 31 1012.4
20260507031538 71 205 8.0 13.0 0.00 0.00 0.00 32 1012.4
20260507031038 71 204 8.0 12.0 0.00 0.00 0.00 32 1012.3
20260507030535 71 204 8.0 12.0 0.00 0.00 0.00 33 1012.2
20260507030043 71 204 9.0 12.0 0.00 0.00 0.00 34 1012.2
20260507025534 71 204 7.0 12.0 0.00 0.00 0.00 38 1012.0
20260507025034 72 204 9.0 12.0 0.00 0.00 0.00 35 1012.1
20260507024550 72 204 8.0 12.0 0.00 0.00 0.00 39 1012.1
20260507024037 72 204 9.0 12.0 0.00 0.00 0.00 41 1012.0
20260507023536 72 204 7.0 10.0 0.00 0.00 0.00 47 1012.0
20260507023049 73 204 8.0 10.0 0.00 0.00 0.00 46 1012.1
20260507022538 73 204 7.0 11.0 0.00 0.00 0.00 47 1012.1
20260507022031 73 204 8.0 12.0 0.00 0.00 0.00 48 1012.2
20260507021544 74 204 9.0 12.0 0.00 0.00 0.00 48 1012.2
20260507021039 74 204 9.0 14.0 0.00 0.00 0.00 46 1012.2
20260507020535 74 204 10.0 14.0 0.00 0.00 0.00 49 1012.2
20260507020059 74 204 11.0 15.0 0.00 0.00 0.00 48 1012.2
20260507015534 74 204 10.0 15.0 0.00 0.00 0.00 49 1012.2
20260507015034 74 204 12.0 16.0 0.00 0.00 0.00 49 1012.1
20260507014540 74 204 12.0 16.0 0.00 0.00 0.00 48 1012.0
20260507014035 74 204 11.0 17.0 0.00 0.00 0.00 49 1012.0
20260507013535 74 204 11.0 17.0 0.00 0.00 0.00 50 1012.0
20260507013050 74 204 11.0 17.0 0.00 0.00 0.00 50 1011.9
20260507012534 74 205 10.0 14.0 0.00 0.00 0.00 49 1012.0
20260507012031 74 205 9.0 15.0 0.00 0.00 0.00 50 1012.0
20260507011545 74 205 11.0 15.0 0.00 0.00 0.00 49 1011.9
20260507011036 75 205 11.0 15.0 0.00 0.00 0.00 49 1012.0
20260507010534 75 205 10.0 15.0 0.00 0.00 0.00 49 1012.0
20260507010042 75 205 11.0 14.0 0.00 0.00 0.00 48 1012.1
20260507005534 76 205 9.0 13.0 0.00 0.00 0.00 47 1012.0
20260507005036 76 205 9.0 14.0 0.00 0.00 0.00 46 1011.9
20260507004551 76 205 9.0 14.0 0.00 0.00 0.00 45 1011.9
20260507004036 76 205 10.0 14.0 0.00 0.00 0.00 44 1011.9
20260507003534 76 205 9.0 14.0 0.00 0.00 0.00 43 1011.9
20260507003051 77 205 9.0 17.0 0.00 0.00 0.00 41 1011.8
20260507002534 77 206 11.0 17.0 0.00 0.00 0.00 40 1011.7
20260507002035 77 205 11.0 16.0 0.00 0.00 0.00 38 1011.8
20260507001547 77 195 10.0 16.0 0.00 0.00 0.00 37 1011.8
20260507001034 78 195 9.0 18.0 0.00 0.00 0.00 39 1011.6
20260507000531 78 195 9.0 18.0 0.00 0.00 0.00 40 1011.7
20260507000046 78 202 10.0 19.0 0.00 0.00 0.00 40 1011.6
20260506235533 78 198 13.0 19.0 0.00 0.00 0.00 38 1011.7
20260506235035 78 198 10.0 18.0 0.00 0.00 0.00 38 1011.7
20260506234544 78 198 12.0 18.0 0.00 0.00 0.00 37 1011.8
20260506234035 78 202 12.0 18.0 0.00 0.00 0.00 36 1011.7
20260506233535 78 197 9.0 17.0 0.00 0.00 0.00 38 1011.7
20260506233053 78 197 13.0 20.0 0.00 0.00 0.00 36 1011.6
20260506232534 78 197 13.0 20.0 0.00 0.00 0.00 34 1011.8
20260506232034 78 213 12.0 19.0 0.00 0.00 0.00 35 1011.8
20260506231554 78 219 13.0 19.0 0.00 0.00 0.00 37 1011.9
20260506231034 78 216 13.0 23.0 0.00 0.00 0.00 37 1011.8
20260506230534 78 219 12.0 23.0 0.00 0.00 0.00 37 1011.9
20260506230052 78 217 16.0 22.0 0.00 0.00 0.00 35 1011.9
20260506225534 78 203 12.0 21.0 0.00 0.00 0.00 36 1012.0
20260506225034 78 202 14.0 21.0 0.00 0.00 0.00 37 1012.2
20260506224545 79 202 12.0 19.0 0.00 0.00 0.00 36 1012.2
20260506224037 78 198 13.0 20.0 0.00 0.00 0.00 38 1012.3
20260506223535 78 198 15.0 20.0 0.00 0.00 0.00 37 1012.4
20260506223045 78 209 12.0 22.0 0.00 0.00 0.00 37 1012.3
20260506222535 78 214 14.0 22.0 0.00 0.00 0.00 38 1012.5
20260506222034 78 223 15.0 23.0 0.00 0.00 0.00 37 1012.6
20260506221541 78 221 17.0 23.0 0.00 0.00 0.00 37 1012.6
20260506221035 78 221 15.0 22.0 0.00 0.00 0.00 37 1012.7
20260506220535 78 217 12.0 22.0 0.00 0.00 0.00 37 1012.7
20260506220043 78 222 13.0 22.0 0.00 0.00 0.00 38 1012.7
20260506215534 78 214 11.0 19.0 0.00 0.00 0.00 37 1012.8
20260506215036 78 211 13.0 21.0 0.00 0.00 0.00 38 1012.9
20260506214552 78 212 15.0 21.0 0.00 0.00 0.00 36 1012.9
20260506214035 78 215 9.0 19.0 0.00 0.00 0.00 39 1012.9
20260506213535 78 214 14.0 19.0 0.00 0.00 0.00 37 1013.1
20260506213101 78 213 10.0 19.0 0.00 0.00 0.00 37 1013.1
20260506212534 78 215 12.0 18.0 0.00 0.00 0.00 36 1013.1
20260506212034 77 219 11.0 22.0 0.00 0.00 0.00 38 1013.2
20260506211547 77 219 13.0 22.0 0.00 0.00 0.00 37 1013.2
20260506211034 77 215 12.0 22.0 0.00 0.00 0.00 41 1013.2
20260506210534 76 221 14.0 22.0 0.00 0.00 0.00 39 1013.2
20260506210045 76 218 13.0 19.0 0.00 0.00 0.00 40 1013.2
20260506205535 76 221 14.0 19.0 0.00 0.00 0.00 37 1013.5
20260506205035 77 209 10.0 21.0 0.00 0.00 0.00 38 1013.5
20260506204541 76 205 11.0 21.0 0.00 0.00 0.00 38 1013.4
20260506204034 76 213 13.0 24.0 0.00 0.00 0.00 37 1013.3
20260506203535 77 201 12.0 24.0 0.00 0.00 0.00 37 1013.3
20260506203043 76 213 14.0 20.0 0.00 0.00 0.00 40 1013.3
20260506202539 76 206 11.0 21.0 0.00 0.00 0.00 39 1013.5
20260506202035 76 209 14.0 21.0 0.00 0.00 0.00 41 1013.7
20260506201547 75 208 14.0 21.0 0.00 0.00 0.00 41 1013.7
20260506201038 75 209 13.0 22.0 0.00 0.00 0.00 42 1013.8
20260506200534 75 213 14.0 22.0 0.00 0.00 0.00 43 1013.8
20260506200047 75 203 14.0 25.0 0.00 0.00 0.00 40 1013.8
20260506195534 74 208 15.0 25.0 0.00 0.00 0.00 44 1013.9
20260506195037 74 221 13.0 24.0 0.00 0.00 0.00 44 1013.9
20260506194542 74 207 16.0 23.0 0.00 0.00 0.00 45 1014.0
20260506194036 74 198 12.0 25.0 0.00 0.00 0.00 44 1013.9
20260506193538 74 188 15.0 25.0 0.00 0.00 0.00 44 1014.0
20260506193522 74 195 13.0 22.0 0.00 0.00 0.00 44 1014.1
20260506162035 65 208 13.0 22.0 0.00 0.00 0.00 63 1014.8
20260506161551 64 208 15.0 22.0 0.00 0.00 0.00 63 1014.9
20260506161034 64 219 15.0 21.0 0.00 0.00 0.00 63 1014.9
20260506160536 64 223 8.0 18.0 0.00 0.00 0.00 64 1014.9
20260506160054 64 223 9.0 15.0 0.00 0.00 0.00 66 1014.8
20260506155538 63 223 7.0 19.0 0.00 0.00 0.00 66 1014.8
20260506155035 63 223 8.0 20.0 0.00 0.00 0.00 68 1014.7
20260506154546 62 223 13.0 20.0 0.00 0.00 0.00 68 1014.6
20260506154035 62 236 12.0 17.0 0.00 0.00 0.00 69 1014.8
20260506153536 62 236 9.0 17.0 0.00 0.00 0.00 69 1014.7
20260506153106 62 261 8.0 14.0 0.00 0.00 0.00 70 1014.7
20260506152535 61 261 8.0 14.0 0.00 0.00 0.00 70 1014.6
20260506152035 61 261 9.0 14.0 0.00 0.00 0.00 70 1014.6
20260506151545 61 264 10.0 15.0 0.00 0.00 0.00 71 1014.8
20260506151042 60 265 10.0 16.0 0.00 0.00 0.00 71 1014.9
20260506150535 60 265 12.0 16.0 0.00 0.00 0.00 70 1014.8
20260506150049 60 265 11.0 16.0 0.00 0.00 0.00 70 1014.6
20260506145535 60 265 11.0 16.0 0.00 0.00 0.00 70 1014.7
20260506145035 60 265 10.0 16.0 0.00 0.00 0.00 70 1014.6
20260506144555 60 265 11.0 16.0 0.00 0.00 0.00 70 1014.5
20260506144034 60 265 8.0 16.0 0.00 0.00 0.00 71 1014.4
20260506143535 60 265 5.0 12.0 0.00 0.00 0.00 72 1014.5
20260506143042 59 265 6.0 10.0 0.00 0.00 0.00 72 1014.4
20260506142534 59 265 5.0 11.0 0.00 0.00 0.00 72 1014.4
20260506142034 59 265 8.0 11.0 0.00 0.00 0.00 73 1014.4
20260506141541 58 265 6.0 10.0 0.00 0.00 0.00 74 1014.4
20260506141034 58 265 5.0 10.0 0.00 0.00 0.00 74 1014.3
20260506140537 58 265 5.0 10.0 0.00 0.00 0.00 74 1014.3
20260506140046 58 265 5.0 10.0 0.00 0.00 0.00 74 1014.2
20260506135535 58 265 5.0 10.0 0.00 0.00 0.00 74 1014.1
20260506135035 57 265 1.0 9.0 0.00 0.00 0.00 75 1014.1
20260506134542 57 265 3.0 9.0 0.00 0.00 0.00 75 1014.1
20260506134038 57 0 0.0 8.0 0.00 0.00 0.00 75 1014.1
20260506133535 56 0 1.0 8.0 0.00 0.00 0.00 75 1014.0
20260506133047 56 265 4.0 7.0 0.00 0.00 0.00 75 1013.9
20260506132538 56 265 2.0 7.0 0.00 0.00 0.00 74 1013.9
20260506132035 56 265 3.0 7.0 0.00 0.00 0.00 74 1013.9
20260506131541 56 265 4.0 6.0 0.00 0.00 0.00 74 1013.9
20260506131034 56 265 3.0 7.0 0.00 0.00 0.00 74 1013.8
20260506130536 55 265 4.0 7.0 0.00 0.00 0.00 77 1013.8
20260506130046 53 265 2.0 6.0 0.00 0.00 0.00 81 1013.8
20260506125535 52 265 2.0 4.0 0.00 0.00 0.00 81 1013.7
20260506125034 53 265 0.0 4.0 0.00 0.00 0.00 79 1013.7
20260506124546 53 265 2.0 4.0 0.00 0.00 0.00 77 1013.8
20260506124040 54 265 0.0 0.0 0.00 0.00 0.00 76 1013.7
20260506123536 54 0 0.0 2.0 0.00 0.00 0.00 75 1013.6
20260506123044 54 0 0.0 2.0 0.00 0.00 0.00 74 1013.6
20260506122535 55 0 0.0 2.0 0.00 0.00 0.00 74 1013.5
20260506122035 55 265 0.0 2.0 0.00 0.00 0.00 72 1013.5
20260506121542 56 265 0.0 4.0 0.00 0.00 0.00 71 1013.4
20260506121039 57 0 1.0 8.0 0.00 0.00 0.00 71 1013.6
20260506120535 57 265 4.0 10.0 0.00 0.00 0.00 71 1013.4
20260506120050 57 265 7.0 12.0 0.00 0.00 0.00 71 1013.3
20260506115534 58 265 7.0 13.0 0.00 0.00 0.00 71 1013.3
20260506115034 58 265 10.0 13.0 0.00 0.00 0.00 70 1013.0
20260506114545 58 265 7.0 13.0 0.00 0.00 0.00 69 1012.9
20260506114036 59 265 8.0 15.0 0.00 0.00 0.00 68 1012.8
20260506113535 59 265 10.0 15.0 0.00 0.00 0.00 68 1012.8
20260506113046 59 330 7.0 13.0 0.00 0.00 0.00 68 1012.7
20260506112535 59 330 5.0 12.0 0.00 0.00 0.00 67 1012.8
20260506112039 59 330 5.0 12.0 0.00 0.00 0.00 67 1012.8
20260506111545 58 330 6.0 10.0 0.00 0.00 0.00 68 1012.8
20260506111035 57 330 4.0 9.0 0.00 0.00 0.00 69 1012.7
20260506110535 57 330 1.0 6.0 0.00 0.00 0.00 68 1012.6
20260506110045 56 330 1.0 6.0 0.00 0.00 0.00 68 1012.5
20260506105535 56 330 0.0 3.0 0.00 0.00 0.00 68 1012.4
20260506105037 55 0 0.0 3.0 0.00 0.00 0.00 68 1012.5
20260506104555 55 0 0.0 1.0 0.00 0.00 0.00 68 1012.5
20260506104034 55 0 0.0 1.0 0.00 0.00 0.00 67 1012.5
20260506103536 55 0 0.0 1.0 0.00 0.00 0.00 67 1012.4
20260506103054 55 0 0.0 1.0 0.00 0.00 0.00 66 1012.5
20260506102535 55 0 0.0 2.0 0.00 0.00 0.00 66 1012.5
20260506102036 55 330 0.0 2.0 0.00 0.00 0.00 65 1012.4
20260506101546 55 0 0.0 2.0 0.00 0.00 0.00 65 1012.3
20260506101035 55 0 0.0 2.0 0.00 0.00 0.00 66 1012.4
20260506100535 55 330 0.0 0.0 0.00 0.00 0.00 65 1012.4
20260506100045 55 0 0.0 0.0 0.00 0.00 0.00 65 1012.3
20260506095535 55 0 0.0 0.0 0.00 0.00 0.00 65 1012.3
20260506095034 55 0 0.0 0.0 0.00 0.00 0.00 64 1012.4
20260506094542 55 0 0.0 2.0 0.00 0.00 0.00 64 1012.4
20260506094038 55 0 0.0 2.0 0.00 0.00 0.00 64 1012.4
20260506093538 55 0 0.0 1.0 0.00 0.00 0.00 65 1012.4
20260506093041 56 0 0.0 0.0 0.00 0.00 0.00 65 1012.3
20260506092536 56 0 0.0 2.0 0.00 0.00 0.00 64 1012.3
20260506092035 56 0 0.0 2.0 0.00 0.00 0.00 64 1012.4
20260506091543 56 0 0.0 0.0 0.00 0.00 0.00 64 1012.3
20260506091036 56 0 0.0 1.0 0.00 0.00 0.00 64 1012.1
20260506090539 56 0 0.0 1.0 0.00 0.00 0.00 64 1012.2
20260506090055 56 0 0.0 2.0 0.00 0.00 0.00 64 1012.2
20260506085535 57 0 0.0 2.0 0.00 0.00 0.00 64 1012.0
20260506085035 57 330 0.0 2.0 0.00 0.00 0.00 63 1012.1
20260506084550 57 0 0.0 2.0 0.00 0.00 0.00 62 1012.1